Weather History for Mather AFB, CA

Change the Weather History Date:

Friday, November 9, 2012

  Actual Average Record
Temperature  
Mean Temperature 44 °F -  
Max Temperature 51 °F 60 °F 73 °F (2001)
Min Temperature 37 °F 41 °F 32 °F (2011)
Degree Days  
Heating Degree Days 21    
Moisture  
Dew Point 38 °F    
Average Humidity 82    
Maximum Humidity 100    
Minimum Humidity 37    
Precipitation  
Precipitation 0.00 in - - ()
Sea Level Pressure  
Sea Level Pressure 29.93 in    
Wind  
Wind Speed 6 mph (SE)    
Max Wind Speed 9 mph    
Max Gust Speed -    
Visibility 10 miles    
Events Rain    
Averages and records for this station are not official NWS values.
T = Trace of Precipitation, MM = Missing Value Source: NWS Daily Summary

Daily Weather History Graph

Daily Weather History Graph

Search for Another Location

Airport:

Trip Planner

Search our weather history database for the weather conditions in past years. The results will help you decide how hot, cold, wet, or windy it might be!

Date:

Astronomy

Nov. 09, 2012 Rise Set
Actual Time 6:41 AM PST 4:56 PM PST
Civil Twilight 6:13 AM PST 5:24 PM PST
Nautical Twilight 5:41 AM PST 5:56 PM PST
Astronomical Twilight 5:10 AM PST 6:27 PM PST
Moon 1:48 AM PST (11/9) 2:09 PM PST (11/9)
Length of Visible Light 11h 11m
Length of Day
10h 15m
Waning Crescent, 22% of the Moon is Illuminated
Nov 9
Waning Crescent
Nov 13
New
Nov 20
First Quarter
Nov 28
Full
Dec 6
Last Quarter

Hourly Weather History & Observations

Time (PST) Temp. Windchill Dew Point Humidity Pressure Visibility Wind Dir Wind Speed Gust Speed Precip Events Conditions
12:46 AM 37.4 °F 32.8 °F 35.6 °F 93% 29.91 in 10.0 mi SE 5.8 mph - N/A   Partly Cloudy
1:46 AM 37.4 °F 32.1 °F 35.6 °F 93% 29.91 in 10.0 mi SE 6.9 mph - N/A   Scattered Clouds
2:46 AM 41.0 °F 37.1 °F 37.4 °F 87% 29.91 in 10.0 mi SE 5.8 mph - N/A   Scattered Clouds
3:46 AM 41.0 °F 36.4 °F 39.2 °F 93% 29.90 in 10.0 mi SE 6.9 mph - N/A   Mostly Cloudy
4:46 AM 41.0 °F 36.4 °F 39.2 °F 93% 29.90 in 10.0 mi SSE 6.9 mph - N/A   Mostly Cloudy
5:46 AM 41.0 °F 36.4 °F 41.0 °F 100% 29.91 in 5.0 mi South 6.9 mph - N/A Rain Light Rain
6:46 AM 39.2 °F 37.0 °F 39.2 °F 100% 29.92 in 10.0 mi SE 3.5 mph - N/A Rain Light Rain
7:50 AM 41.0 °F 37.1 °F 41.0 °F 100% 29.93 in 10.0 mi SE 5.8 mph - N/A   Mostly Cloudy
8:45 AM 44.6 °F 40.7 °F 41.0 °F 87% 29.95 in 10.0 mi SE 6.9 mph - N/A   Mostly Cloudy
9:45 AM 46.4 °F 43.5 °F 41.0 °F 81% 29.95 in 10.0 mi South 5.8 mph - N/A   Mostly Cloudy
10:45 AM 46.4 °F 43.5 °F 39.2 °F 76% 29.95 in 10.0 mi SSE 5.8 mph - N/A   Mostly Cloudy
11:45 AM 50.0 °F - 24.8 °F 37% 29.94 in 10.0 mi SE 5.8 mph - N/A   Mostly Cloudy
12:45 PM 48.2 °F - 37.4 °F 66% 29.92 in 10.0 mi Calm Calm - N/A   Mostly Cloudy
2:45 PM 48.2 °F - 39.2 °F 71% 29.91 in 10.0 mi Calm Calm - N/A   Mostly Cloudy
3:45 PM 51.8 °F - 35.6 °F 54% 29.91 in 10.0 mi Calm Calm - N/A   Scattered Clouds
4:45 PM 48.2 °F - 35.6 °F 62% 29.92 in 10.0 mi Calm Calm - N/A   Scattered Clouds
5:55 PM 41.0 °F 36.4 °F 37.4 °F 87% 29.93 in 10.0 mi ESE 6.9 mph - N/A   Scattered Clouds
6:49 PM 44.6 °F 41.4 °F 37.4 °F 76% 29.94 in 10.0 mi East 5.8 mph - N/A   Scattered Clouds
7:45 PM 44.6 °F 40.7 °F 39.2 °F 81% 29.94 in 10.0 mi ESE 6.9 mph - N/A   Scattered Clouds
8:45 PM 44.6 °F 40.2 °F 39.2 °F 81% 29.95 in 10.0 mi SE 8.1 mph - N/A   Scattered Clouds
9:41 PM 42.8 °F 38.0 °F 39.2 °F 87% 29.96 in 10.0 mi ESE 8.1 mph - N/A   Scattered Clouds
10:45 PM 42.8 °F 38.6 °F 39.2 °F 87% 29.97 in 10.0 mi ESE 6.9 mph - N/A   Scattered Clouds
11:45 PM 41.0 °F 35.2 °F 39.2 °F 93% 29.96 in 10.0 mi ESE 9.2 mph - N/A   Partly Cloudy